Kenai, AK

5:04 PM AKDT on October 22, 2017 (GMT -0800)
Kenai Municipal

Weather History for PAEN - February, 2014

Change the Weather History Date:

Wednesday, February 19, 2014

  Actual Average Record
Temperature  
Mean Temperature 16 °F -  
Max Temperature 23 °F 26 °F 42 °F (1977)
Min Temperature 9 °F 6 °F -35 °F (1974)
Degree Days  
Heating Degree Days 49    
Moisture  
Dew Point 17 °F    
Average Humidity 93    
Maximum Humidity 100    
Minimum Humidity 85    
Precipitation  
Precipitation 0.02 in - - ()
Sea Level Pressure  
Sea Level Pressure 29.52 in    
Wind  
Wind Speed 5 mph (South)    
Max Wind Speed 7 mph    
Max Gust Speed -    
Visibility 5 miles    
Events Snow    
Averages and records for this station are not official NWS values.
T = Trace of Precipitation, MM = Missing Value Source: NWS Daily Summary

Daily Weather History Graph

Daily Weather History Graph

Search for Another Location

Airport or City:

Trip Planner

Search our weather history database for the weather conditions in past years. The results will help you decide how hot, cold, wet, or windy it might be!

Date:

Astronomy

Feb. 19, 2014 Rise Set
Actual Time 8:33 AM AKST 6:05 PM AKST
Civil Twilight 7:49 AM AKST 6:49 PM AKST
Nautical Twilight 6:59 AM AKST 7:38 PM AKST
Astronomical Twilight 6:11 AM AKST 8:28 PM AKST
Moon No Moon Rise 9:23 AM AKST (2/19)
Length of Visible Light 11h 00m
Length of Day
9h 32m
Waning Gibbous, 78% of the Moon is Illuminated
Feb 19
Waning Gibbous
Feb 22
Last Quarter
Feb 28
New
Mar 8
First Quarter
Mar 16
Full

Hourly Weather History & Observations

Time (AKST) Temp. Windchill Dew Point Humidity Pressure Visibility Wind Dir Wind Speed Gust Speed Precip Events Conditions
12:53 AM 19.0 °F 11.1 °F 15.1 °F 85% 29.39 in 10.0 mi SE 5.8 mph - N/A   Overcast
1:53 AM 19.0 °F 11.1 °F 17.1 °F 92% 29.40 in 7.0 mi South 5.8 mph - 0.00 in Snow Light Snow
2:46 AM 19.4 °F 10.4 °F 17.6 °F 93% 29.40 in 2.5 mi South 6.9 mph - 0.00 in Snow Light Snow
3:49 AM 19.4 °F 11.5 °F 19.4 °F 100% 29.41 in 2.5 mi South 5.8 mph - 0.00 in Snow Light Snow
3:53 AM 19.9 °F 12.1 °F 19.0 °F 96% 29.43 in 2.5 mi South 5.8 mph - 0.00 in Snow Light Snow
4:05 AM 19.4 °F 12.8 °F 19.4 °F 100% 29.42 in 3.0 mi SSE 4.6 mph - 0.00 in Snow Light Snow
4:16 AM 19.4 °F 11.5 °F 19.4 °F 100% 29.42 in 1.8 mi South 5.8 mph - 0.01 in Snow Light Snow
4:43 AM 19.4 °F 12.8 °F 19.4 °F 100% 29.42 in 1.5 mi South 4.6 mph - 0.01 in Snow Light Snow
4:49 AM 19.4 °F 12.8 °F 19.4 °F 100% 29.42 in 2.0 mi South 4.6 mph - 0.01 in Snow Light Snow
4:53 AM 19.9 °F 13.4 °F 19.0 °F 96% 29.43 in 2.5 mi South 4.6 mph - 0.01 in Snow Light Snow
5:02 AM 19.4 °F 12.8 °F 19.4 °F 100% 29.42 in 3.0 mi South 4.6 mph - 0.00 in Snow Light Snow
5:17 AM 19.4 °F - 19.4 °F 100% 29.43 in 4.0 mi Calm Calm - 0.00 in Snow Light Snow
5:53 AM 19.9 °F 12.1 °F 18.0 °F 92% 29.45 in 5.0 mi SSE 5.8 mph - 0.00 in Snow Light Snow
6:06 AM 19.4 °F 11.5 °F 17.6 °F 93% 29.44 in 6.0 mi South 5.8 mph - 0.01 in Snow Light Snow
6:21 AM 19.4 °F 12.8 °F 17.6 °F 93% 29.44 in 8.0 mi SSE 4.6 mph - 0.01 in   Overcast
6:53 AM 19.9 °F 13.4 °F 18.0 °F 92% 29.46 in 3.0 mi SSE 4.6 mph - 0.01 in Snow Light Snow
6:55 AM 19.4 °F 11.5 °F 17.6 °F 93% 29.45 in 3.0 mi SSE 5.8 mph - 0.00 in Snow Light Snow
7:16 AM 19.4 °F 11.5 °F 17.6 °F 93% 29.45 in 2.0 mi SSE 5.8 mph - 0.00 in Snow Light Snow
7:53 AM 19.9 °F 12.1 °F 18.0 °F 92% 29.47 in 2.5 mi SSE 5.8 mph - 0.00 in Snow Light Snow
8:46 AM 19.4 °F 10.4 °F 17.6 °F 93% 29.48 in 2.0 mi South 6.9 mph - 0.00 in Snow Light Snow
8:53 AM 19.0 °F 10.0 °F 17.1 °F 92% 29.49 in 2.5 mi South 6.9 mph - 0.00 in Snow Light Snow
9:06 AM 19.4 °F 10.4 °F 17.6 °F 93% 29.49 in 4.0 mi SSE 6.9 mph - 0.00 in Snow Light Snow
9:53 AM 19.9 °F 13.4 °F 17.1 °F 89% 29.51 in 9.0 mi South 4.6 mph - 0.00 in   Overcast
10:06 AM 19.4 °F 11.5 °F 17.6 °F 93% 29.51 in 5.0 mi South 5.8 mph - N/A   Overcast
10:53 AM 21.0 °F 12.4 °F 18.0 °F 88% 29.54 in 4.0 mi South 6.9 mph - N/A   Overcast
11:15 AM 21.2 °F 12.6 °F 17.6 °F 86% 29.53 in 2.5 mi South 6.9 mph - 0.00 in Snow Light Snow
11:53 AM 21.0 °F 13.4 °F 18.0 °F 88% 29.55 in 2.5 mi South 5.8 mph - 0.00 in Snow Light Snow
12:53 PM 21.9 °F 13.4 °F 19.0 °F 89% 29.57 in 2.0 mi South 6.9 mph - 0.00 in Snow Light Snow
1:53 PM 21.9 °F 14.5 °F 19.9 °F 92% 29.59 in 2.0 mi South 5.8 mph - 0.00 in Snow Light Snow
2:26 PM 23.0 °F 14.7 °F 19.4 °F 86% 29.58 in 2.0 mi SSW 6.9 mph - 0.00 in Snow Light Snow
2:43 PM 21.2 °F 13.6 °F 19.4 °F 93% 29.59 in 7.0 mi SSW 5.8 mph - 0.00 in   Overcast
2:53 PM 21.9 °F 14.5 °F 19.0 °F 89% 29.60 in 8.0 mi SSW 5.8 mph - 0.00 in   Overcast
3:53 PM 21.9 °F - 19.0 °F 89% 29.62 in 10.0 mi Calm Calm - 0.00 in   Overcast
4:53 PM 21.0 °F - 18.0 °F 88% 29.63 in 10.0 mi Calm Calm - N/A   Overcast
5:53 PM 19.0 °F - 18.0 °F 96% 29.65 in 10.0 mi Calm Calm - N/A   Mostly Cloudy
6:53 PM 18.0 °F - 17.1 °F 96% 29.67 in 10.0 mi Calm Calm - N/A   Overcast
7:53 PM 16.0 °F - 15.1 °F 96% 29.68 in 10.0 mi Calm Calm - N/A   Mostly Cloudy
8:53 PM 9.0 °F - 8.1 °F 96% 29.70 in 10.0 mi Calm Calm - N/A   Clear
9:53 PM 10.9 °F 4.7 °F 9.0 °F 92% 29.72 in 10.0 mi NNE 3.5 mph - N/A   Overcast
10:53 PM 12.0 °F - 10.9 °F 95% 29.73 in 10.0 mi Calm Calm - N/A   Overcast
11:53 PM 12.9 °F - 12.0 °F 96% 29.76 in 10.0 mi Calm Calm - N/A   Overcast